Time,TemperatureF,DewpointF,PressureIn,WindDirection,WindDirectionDegrees,WindSpeedMPH,WindSpeedGustMPH,Humidity,HourlyPrecipIn,Conditions,Clouds,dailyrainin,SoftwareType,DateUTC
2013-01-14 00:05:00,47.3,43.3,29.79,WNW,298,2.0,7.0,86,0.00,,,-99.99,Weather View 32 v70,2013-01-14 05:05:00,
2013-01-14 00:10:00,46.9,42.9,29.79,WNW,298,2.0,7.0,86,0.00,,,-99.99,Weather View 32 v70,2013-01-14 05:10:00,
2013-01-14 00:15:00,46.8,42.8,29.80,WNW,283,4.0,7.0,86,0.00,,,-99.99,Weather View 32 v70,2013-01-14 05:15:00,
2013-01-14 00:25:00,46.4,42.1,29.81,WSW,239,2.0,8.0,85,0.00,,,-99.99,Weather View 32 v70,2013-01-14 05:25:00,
2013-01-14 00:30:00,46.2,42.2,29.80,WSW,238,5.0,8.0,86,0.00,,,-99.99,Weather View 32 v70,2013-01-14 05:30:00,
2013-01-14 00:40:00,46.0,42.0,29.81,SW,226,5.0,8.0,86,0.00,,,-99.99,Weather View 32 v70,2013-01-14 05:40:00,
2013-01-14 00:50:00,45.4,41.1,29.86,WSW,239,10.0,17.0,85,0.00,,,-99.99,Weather View 32 v70,2013-01-14 05:50:00,
2013-01-14 00:55:00,44.6,40.1,29.86,SW,222,7.0,17.0,84,0.00,,,-99.99,Weather View 32 v70,2013-01-14 05:55:00,
2013-01-14 01:00:00,43.9,39.4,29.88,SW,233,6.0,17.0,84,0.00,,,-99.99,Weather View 32 v70,2013-01-14 06:00:00,
2013-01-14 01:05:00,43.6,39.1,29.89,SW,220,10.0,17.0,84,0.00,,,-99.99,Weather View 32 v70,2013-01-14 06:05:00,
2013-01-14 01:10:00,43.5,39.3,29.89,SW,230,5.0,17.0,85,0.00,,,-99.99,Weather View 32 v70,2013-01-14 06:10:00,
2013-01-14 01:20:00,42.9,38.7,29.91,SW,215,8.0,18.0,85,0.03,,,-99.99,Weather View 32 v70,2013-01-14 06:20:00,
2013-01-14 01:25:00,42.9,38.7,29.92,SW,231,5.0,18.0,85,0.03,,,-99.99,Weather View 32 v70,2013-01-14 06:25:00,
2013-01-14 01:30:00,43.0,38.8,29.93,SW,232,9.0,18.0,85,0.04,,,-99.99,Weather View 32 v70,2013-01-14 06:30:00,
2013-01-14 01:35:00,42.9,38.7,29.93,SW,236,8.0,18.0,85,0.04,,,-99.99,Weather View 32 v70,2013-01-14 06:35:00,
2013-01-14 01:45:00,43.2,39.0,29.94,WSW,251,9.0,18.0,85,0.04,,,-99.99,Weather View 32 v70,2013-01-14 06:45:00,
2013-01-14 01:55:00,42.9,38.7,29.95,West,268,6.0,19.0,85,0.04,,,-99.99,Weather View 32 v70,2013-01-14 06:55:00,
2013-01-14 02:00:00,42.7,38.8,29.95,West,278,9.0,19.0,86,0.04,,,-99.99,Weather View 32 v70,2013-01-14 07:00:00,
2013-01-14 02:05:00,42.7,38.8,29.96,West,269,8.0,19.0,86,0.04,,,-99.99,Weather View 32 v70,2013-01-14 07:05:00,
2013-01-14 02:15:00,42.4,38.5,29.97,West,280,3.0,19.0,86,0.02,,,-99.99,Weather View 32 v70,2013-01-14 07:15:00,
2013-01-14 02:20:00,42.3,38.4,29.97,WNW,290,6.0,19.0,86,0.02,,,-99.99,Weather View 32 v70,2013-01-14 07:20:00,
2013-01-14 02:25:00,42.1,38.2,29.98,West,259,10.0,19.0,86,0.02,,,-99.99,Weather View 32 v70,2013-01-14 07:25:00,
2013-01-14 02:30:00,41.9,38.0,29.99,WNW,293,4.0,19.0,86,0.01,,,-99.99,Weather View 32 v70,2013-01-14 07:30:00,
2013-01-14 02:35:00,41.9,38.0,29.99,West,270,4.0,19.0,86,0.02,,,-99.99,Weather View 32 v70,2013-01-14 07:35:00,
2013-01-14 02:45:00,42.1,38.2,30.00,West,267,5.0,19.0,86,0.02,,,-99.99,Weather View 32 v70,2013-01-14 07:45:00,
2013-01-14 02:50:00,42.1,38.2,30.00,SW,223,5.0,19.0,86,0.02,,,-99.99,Weather View 32 v70,2013-01-14 07:50:00,
2013-01-14 02:55:00,42.2,38.0,29.99,SW,233,5.0,14.0,85,0.02,,,-99.99,Weather View 32 v70,2013-01-14 07:55:00,
2013-01-14 03:00:00,42.5,38.3,30.00,SW,235,5.0,14.0,85,0.02,,,-99.99,Weather View 32 v70,2013-01-14 08:00:00,
2013-01-14 03:10:00,42.4,37.9,30.01,West,261,5.0,14.0,84,0.02,,,-99.99,Weather View 32 v70,2013-01-14 08:10:00,
2013-01-14 03:15:00,42.2,37.7,30.02,SSW,212,4.0,13.0,84,0.02,,,-99.99,Weather View 32 v70,2013-01-14 08:15:00,
2013-01-14 03:20:00,41.9,37.4,30.01,SW,214,10.0,13.0,84,0.01,,,-99.99,Weather View 32 v70,2013-01-14 08:20:00,
2013-01-14 03:25:00,41.7,37.2,30.01,SSW,213,6.0,12.0,84,0.01,,,-99.99,Weather View 32 v70,2013-01-14 08:25:00,
2013-01-14 03:30:00,41.8,37.3,30.01,SW,224,7.0,13.0,84,0.01,,,-99.99,Weather View 32 v70,2013-01-14 08:30:00,
2013-01-14 03:40:00,41.5,36.7,30.03,West,263,5.0,13.0,83,0.00,,,-99.99,Weather View 32 v70,2013-01-14 08:40:00,
2013-01-14 03:45:00,41.4,36.6,30.03,SW,236,6.0,13.0,83,0.00,,,-99.99,Weather View 32 v70,2013-01-14 08:45:00,
2013-01-14 03:50:00,41.2,36.4,30.03,SW,225,8.0,14.0,83,0.00,,,-99.99,Weather View 32 v70,2013-01-14 08:50:00,
2013-01-14 03:55:00,41.0,36.2,30.03,SW,229,5.0,15.0,83,0.00,,,-99.99,Weather View 32 v70,2013-01-14 08:55:00,
2013-01-14 04:00:00,40.8,36.0,30.03,West,259,7.0,15.0,83,0.00,,,-99.99,Weather View 32 v70,2013-01-14 09:00:00,
2013-01-14 04:10:00,40.5,35.7,30.03,SW,221,7.0,15.0,83,0.00,,,-99.99,Weather View 32 v70,2013-01-14 09:10:00,
2013-01-14 04:15:00,40.5,35.4,30.04,SW,219,5.0,15.0,82,0.00,,,-99.99,Weather View 32 v70,2013-01-14 09:15:00,
2013-01-14 04:20:00,40.5,35.7,30.04,WSW,237,4.0,15.0,83,0.00,,,-99.99,Weather View 32 v70,2013-01-14 09:20:00,
2013-01-14 04:30:00,40.4,35.3,30.04,WNW,285,4.0,15.0,82,0.00,,,-99.99,Weather View 32 v70,2013-01-14 09:30:00,
2013-01-14 04:35:00,40.3,35.2,30.04,SW,230,7.0,15.0,82,0.00,,,-99.99,Weather View 32 v70,2013-01-14 09:35:00,
2013-01-14 04:45:00,40.1,35.0,30.05,WSW,248,12.0,15.0,82,0.00,,,-99.99,Weather View 32 v70,2013-01-14 09:45:00,
2013-01-14 04:55:00,40.0,34.9,30.05,West,264,7.0,15.0,82,0.00,,,-99.99,Weather View 32 v70,2013-01-14 09:55:00,
2013-01-14 05:05:00,39.8,34.4,30.06,WSW,254,6.0,18.0,81,0.00,,,-99.99,Weather View 32 v70,2013-01-14 10:05:00,
2013-01-14 05:10:00,39.6,34.2,30.07,West,266,7.0,18.0,81,0.00,,,-99.99,Weather View 32 v70,2013-01-14 10:10:00,
2013-01-14 05:15:00,39.4,33.7,30.07,West,272,5.0,18.0,80,0.00,,,-99.99,Weather View 32 v70,2013-01-14 10:15:00,
2013-01-14 05:20:00,38.9,32.9,30.07,West,274,13.0,18.0,79,0.00,,,-99.99,Weather View 32 v70,2013-01-14 10:20:00,
2013-01-14 05:30:00,38.4,32.5,30.08,WNW,286,8.0,18.0,79,0.00,,,-99.99,Weather View 32 v70,2013-01-14 10:30:00,
2013-01-14 05:35:00,38.4,32.5,30.09,NW,305,2.0,18.0,79,0.00,,,-99.99,Weather View 32 v70,2013-01-14 10:35:00,
2013-01-14 05:40:00,38.4,32.5,30.09,West,262,9.0,18.0,79,0.00,,,-99.99,Weather View 32 v70,2013-01-14 10:40:00,
2013-01-14 05:47:00,38.2,32.3,30.10,WNW,284,7.0,18.0,79,0.00,,,-99.99,Weather View 32 v70,2013-01-14 10:47:00,
2013-01-14 05:55:00,38.1,31.8,30.11,West,260,5.0,18.0,78,0.00,,,-99.99,Weather View 32 v70,2013-01-14 10:55:00,
2013-01-14 06:05:00,38.1,31.8,30.12,West,260,6.0,17.0,78,0.00,,,-99.99,Weather View 32 v70,2013-01-14 11:05:00,
2013-01-14 06:10:00,38.0,31.7,30.12,WSW,245,4.0,17.0,78,0.00,,,-99.99,Weather View 32 v70,2013-01-14 11:10:00,
2013-01-14 06:15:00,38.0,31.7,30.13,WSW,256,2.0,16.0,78,0.00,,,-99.99,Weather View 32 v70,2013-01-14 11:15:00,
2013-01-14 06:20:00,38.0,31.4,30.13,West,259,9.0,16.0,77,0.00,,,-99.99,Weather View 32 v70,2013-01-14 11:20:00,
2013-01-14 06:30:00,37.7,29.5,30.14,West,268,5.0,20.0,72,0.00,,,-99.99,Weather View 32 v70,2013-01-14 11:30:00,
2013-01-14 06:35:00,37.5,28.9,30.14,WNW,288,4.0,20.0,71,0.00,,,-99.99,Weather View 32 v70,2013-01-14 11:35:00,
2013-01-14 06:45:00,37.2,28.7,30.15,West,265,2.0,21.0,71,0.00,,,-99.99,Weather View 32 v70,2013-01-14 11:45:00,
2013-01-14 06:50:00,37.1,28.6,30.15,WSW,252,7.0,21.0,71,0.00,,,-99.99,Weather View 32 v70,2013-01-14 11:50:00,
2013-01-14 07:00:00,37.0,29.1,30.16,West,261,8.0,21.0,73,0.00,,,-99.99,Weather View 32 v70,2013-01-14 12:00:00,
2013-01-14 07:05:00,36.9,29.0,30.17,WSW,258,16.0,21.0,73,0.00,,,-99.99,Weather View 32 v70,2013-01-14 12:05:00,
2013-01-14 07:10:00,36.8,29.0,30.17,West,278,10.0,21.0,73,0.00,,,-99.99,Weather View 32 v70,2013-01-14 12:10:00,
2013-01-14 07:15:00,36.6,28.1,30.18,West,277,5.0,21.0,71,0.00,,,-99.99,Weather View 32 v70,2013-01-14 12:15:00,
2013-01-14 07:20:00,36.5,27.3,30.18,WNW,292,11.0,21.0,69,0.00,,,-99.99,Weather View 32 v70,2013-01-14 12:20:00,
2013-01-14 07:30:00,36.3,27.8,30.19,West,277,3.0,21.0,71,0.00,,,-99.99,Weather View 32 v70,2013-01-14 12:30:00,
2013-01-14 07:35:00,36.2,27.4,30.19,WNW,288,4.0,21.0,70,0.00,,,-99.99,Weather View 32 v70,2013-01-14 12:35:00,
2013-01-14 07:40:00,36.1,26.9,30.19,West,276,11.0,21.0,69,0.00,,,-99.99,Weather View 32 v70,2013-01-14 12:40:00,
2013-01-14 07:48:00,35.9,26.7,30.20,WNW,295,7.0,18.0,69,0.00,,,-99.99,Weather View 32 v70,2013-01-14 12:48:00,
2013-01-14 07:55:00,35.6,26.1,30.21,West,271,5.0,19.0,68,0.00,,,-99.99,Weather View 32 v70,2013-01-14 12:55:00,
2013-01-14 08:05:00,35.3,26.1,30.22,WNW,283,6.0,19.0,69,0.00,,,-99.99,Weather View 32 v70,2013-01-14 13:05:00,
2013-01-14 08:10:00,35.2,26.4,30.23,West,264,7.0,19.0,70,0.00,,,-99.99,Weather View 32 v70,2013-01-14 13:10:00,
2013-01-14 08:15:00,34.8,25.7,30.23,WNW,286,5.0,19.0,69,0.00,,,-99.99,Weather View 32 v70,2013-01-14 13:15:00,
2013-01-14 08:20:00,34.7,25.9,30.23,WNW,291,7.0,19.0,70,0.00,,,-99.99,Weather View 32 v70,2013-01-14 13:20:00,
2013-01-14 08:25:00,34.5,25.7,30.24,WNW,288,8.0,19.0,70,0.00,,,-99.99,Weather View 32 v70,2013-01-14 13:25:00,
2013-01-14 08:35:00,34.2,25.1,30.25,WNW,297,6.0,19.0,69,0.00,,,-99.99,Weather View 32 v70,2013-01-14 13:35:00,
2013-01-14 08:40:00,33.8,24.4,30.25,NW,313,8.0,19.0,68,0.00,,,-99.99,Weather View 32 v70,2013-01-14 13:40:00,
2013-01-14 08:45:00,33.8,24.0,30.26,WNW,284,5.0,19.0,67,0.00,,,-99.99,Weather View 32 v70,2013-01-14 13:45:00,
2013-01-14 08:50:00,33.7,23.9,30.26,NW,310,4.0,19.0,67,0.00,,,-99.99,Weather View 32 v70,2013-01-14 13:50:00,
2013-01-14 08:55:00,33.8,23.6,30.27,West,279,5.0,16.0,66,0.00,,,-99.99,Weather View 32 v70,2013-01-14 13:55:00,
2013-01-14 09:05:00,33.9,23.0,30.27,West,279,4.0,16.0,64,0.00,,,-99.99,Weather View 32 v70,2013-01-14 14:05:00,
2013-01-14 09:10:00,33.7,22.4,30.28,WNW,285,7.0,16.0,63,0.00,,,-99.99,Weather View 32 v70,2013-01-14 14:10:00,
2013-01-14 09:15:00,33.7,22.4,30.28,WNW,290,6.0,16.0,63,0.00,,,-99.99,Weather View 32 v70,2013-01-14 14:15:00,
2013-01-14 09:20:00,33.8,22.1,30.28,WNW,303,5.0,16.0,62,0.00,,,-99.99,Weather View 32 v70,2013-01-14 14:20:00,
2013-01-14 09:30:00,33.8,22.1,30.29,WNW,294,4.0,16.0,62,0.00,,,-99.99,Weather View 32 v70,2013-01-14 14:30:00,
2013-01-14 09:35:00,34.0,22.3,30.29,WSW,252,3.0,16.0,62,0.00,,,-99.99,Weather View 32 v70,2013-01-14 14:35:00,
2013-01-14 09:40:00,34.2,22.1,30.29,West,277,7.0,16.0,61,0.00,,,-99.99,Weather View 32 v70,2013-01-14 14:40:00,
2013-01-14 09:49:00,34.0,22.3,30.29,WNW,300,4.0,16.0,62,0.00,,,-99.99,Weather View 32 v70,2013-01-14 14:49:00,
2013-01-14 09:55:00,34.0,22.7,30.30,WNW,282,7.0,15.0,63,0.00,,,-99.99,Weather View 32 v70,2013-01-14 14:55:00,
2013-01-14 10:00:00,33.6,21.6,30.30,WNW,291,10.0,15.0,61,0.00,,,-99.99,Weather View 32 v70,2013-01-14 15:00:00,
2013-01-14 10:05:00,33.6,22.0,30.30,WNW,288,5.0,15.0,62,0.00,,,-99.99,Weather View 32 v70,2013-01-14 15:05:00,
2013-01-14 10:15:00,33.7,22.4,30.31,WNW,301,6.0,15.0,63,0.00,,,-99.99,Weather View 32 v70,2013-01-14 15:15:00,
2013-01-14 10:20:00,33.7,22.1,30.31,West,273,5.0,16.0,62,0.00,,,-99.99,Weather View 32 v70,2013-01-14 15:20:00,
2013-01-14 10:25:00,33.7,22.8,30.31,WNW,283,4.0,16.0,64,0.00,,,-99.99,Weather View 32 v70,2013-01-14 15:25:00,
2013-01-14 10:30:00,33.3,22.1,30.32,NW,306,12.0,16.0,63,0.00,,,-99.99,Weather View 32 v70,2013-01-14 15:30:00,
2013-01-14 10:40:00,32.6,21.4,30.33,NW,322,4.0,16.0,63,0.00,,,-99.99,Weather View 32 v70,2013-01-14 15:40:00,
2013-01-14 10:45:00,32.5,21.3,30.33,NW,319,8.0,16.0,63,0.00,,,-99.99,Weather View 32 v70,2013-01-14 15:45:00,
2013-01-14 10:50:00,32.4,20.8,30.33,NW,309,5.0,16.0,62,0.00,,,-99.99,Weather View 32 v70,2013-01-14 15:50:00,
2013-01-14 11:00:00,32.5,20.9,30.33,NW,309,9.0,16.0,62,0.00,,,-99.99,Weather View 32 v70,2013-01-14 16:00:00,
2013-01-14 11:05:00,32.5,20.9,30.33,NW,309,8.0,16.0,62,0.00,,,-99.99,Weather View 32 v70,2013-01-14 16:05:00,
2013-01-14 11:10:00,32.6,20.6,30.33,NW,309,6.0,16.0,61,0.00,,,-99.99,Weather View 32 v70,2013-01-14 16:10:00,
2013-01-14 11:15:00,32.6,20.6,30.33,NW,309,6.0,16.0,61,0.00,,,-99.99,Weather View 32 v70,2013-01-14 16:15:00,
2013-01-14 11:25:00,32.9,21.3,30.33,NW,309,8.0,16.0,62,0.00,,,-99.99,Weather View 32 v70,2013-01-14 16:25:00,
2013-01-14 11:30:00,33.1,20.3,30.33,NW,309,1.0,16.0,59,0.00,,,-99.99,Weather View 32 v70,2013-01-14 16:30:00,
2013-01-14 11:35:00,33.3,21.3,30.32,NW,309,8.0,16.0,61,0.00,,,-99.99,Weather View 32 v70,2013-01-14 16:35:00,
2013-01-14 11:40:00,33.4,21.0,30.32,NW,309,2.0,16.0,60,0.00,,,-99.99,Weather View 32 v70,2013-01-14 16:40:00,
2013-01-14 11:50:00,33.4,21.4,30.33,NW,309,5.0,16.0,61,0.00,,,-99.99,Weather View 32 v70,2013-01-14 16:50:00,
2013-01-14 11:55:00,33.1,20.7,30.32,NW,309,4.0,16.0,60,0.00,,,-99.99,Weather View 32 v70,2013-01-14 16:55:00,
2013-01-14 12:00:00,33.2,21.2,30.32,NW,309,5.0,16.0,61,0.00,,,-99.99,Weather View 32 v70,2013-01-14 17:00:00,
2013-01-14 12:05:00,33.5,21.5,30.32,NW,309,6.0,14.0,61,0.00,,,-99.99,Weather View 32 v70,2013-01-14 17:05:00,
2013-01-14 12:15:00,33.1,20.7,30.32,NW,309,3.0,13.0,60,0.00,,,-99.99,Weather View 32 v70,2013-01-14 17:15:00,
2013-01-14 12:20:00,33.1,21.1,30.32,NW,309,7.0,12.0,61,0.00,,,-99.99,Weather View 32 v70,2013-01-14 17:20:00,
2013-01-14 12:25:00,33.0,21.0,30.32,NW,309,2.0,12.0,61,0.00,,,-99.99,Weather View 32 v70,2013-01-14 17:25:00,
2013-01-14 12:30:00,33.4,21.4,30.32,NW,309,3.0,12.0,61,0.00,,,-99.99,Weather View 32 v70,2013-01-14 17:30:00,
2013-01-14 12:40:00,34.3,22.2,30.31,NW,309,5.0,12.0,61,0.00,,,-99.99,Weather View 32 v70,2013-01-14 17:40:00,
2013-01-14 12:45:00,34.3,22.2,30.31,WNW,297,3.0,12.0,61,0.00,,,-99.99,Weather View 32 v70,2013-01-14 17:45:00,
2013-01-14 12:50:00,34.5,22.0,30.31,West,265,2.0,12.0,60,0.00,,,-99.99,Weather View 32 v70,2013-01-14 17:50:00,
2013-01-14 13:00:00,34.4,21.5,30.32,WNW,295,4.0,12.0,59,0.00,,,-99.99,Weather View 32 v70,2013-01-14 18:00:00,
2013-01-14 13:05:00,34.0,20.8,30.31,WNW,293,4.0,12.0,58,0.00,,,-99.99,Weather View 32 v70,2013-01-14 18:05:00,
2013-01-14 13:10:00,34.5,21.6,30.32,West,273,2.0,12.0,59,0.00,,,-99.99,Weather View 32 v70,2013-01-14 18:10:00,
2013-01-14 13:15:00,34.6,20.5,30.32,NW,307,3.0,11.0,56,0.00,,,-99.99,Weather View 32 v70,2013-01-14 18:15:00,
2013-01-14 13:25:00,34.7,21.0,30.32,West,259,9.0,12.0,57,0.00,,,-99.99,Weather View 32 v70,2013-01-14 18:25:00,
2013-01-14 13:30:00,34.9,20.8,30.32,WSW,255,4.0,12.0,56,0.00,,,-99.99,Weather View 32 v70,2013-01-14 18:30:00,
2013-01-14 13:35:00,34.6,19.6,30.32,WNW,299,6.0,15.0,54,0.00,,,-99.99,Weather View 32 v70,2013-01-14 18:35:00,
2013-01-14 13:40:00,34.5,20.4,30.32,West,268,3.0,15.0,56,0.00,,,-99.99,Weather View 32 v70,2013-01-14 18:40:00,
2013-01-14 13:50:00,34.3,20.2,30.32,West,262,5.0,15.0,56,0.00,,,-99.99,Weather View 32 v70,2013-01-14 18:50:00,
2013-01-14 13:55:00,34.4,19.9,30.32,WNW,287,6.0,15.0,55,0.00,,,-99.99,Weather View 32 v70,2013-01-14 18:55:00,
2013-01-14 14:00:00,34.5,20.4,30.32,SW,229,7.0,15.0,56,0.00,,,-99.99,Weather View 32 v70,2013-01-14 19:00:00,
2013-01-14 14:10:00,34.7,20.2,30.32,West,259,6.0,15.0,55,0.00,,,-99.99,Weather View 32 v70,2013-01-14 19:10:00,
2013-01-14 14:15:00,34.4,19.0,30.32,West,274,3.0,15.0,53,0.00,,,-99.99,Weather View 32 v70,2013-01-14 19:15:00,
2013-01-14 14:20:00,34.1,19.2,30.32,West,271,4.0,15.0,54,0.00,,,-99.99,Weather View 32 v70,2013-01-14 19:20:00,
2013-01-14 14:30:00,34.1,19.2,30.32,WNW,294,4.0,15.0,54,0.00,,,-99.99,Weather View 32 v70,2013-01-14 19:30:00,
2013-01-14 14:35:00,33.7,18.4,30.32,West,279,8.0,13.0,53,0.00,,,-99.99,Weather View 32 v70,2013-01-14 19:35:00,
2013-01-14 14:40:00,33.6,18.7,30.32,WNW,295,6.0,13.0,54,0.00,,,-99.99,Weather View 32 v70,2013-01-14 19:40:00,
2013-01-14 14:50:00,33.6,20.0,30.32,WNW,292,1.0,13.0,57,0.00,,,-99.99,Weather View 32 v70,2013-01-14 19:50:00,
2013-01-14 14:55:00,33.7,20.1,30.32,West,265,2.0,13.0,57,0.00,,,-99.99,Weather View 32 v70,2013-01-14 19:55:00,
2013-01-14 15:00:00,33.7,20.1,30.33,WNW,296,4.0,12.0,57,0.00,,,-99.99,Weather View 32 v70,2013-01-14 20:00:00,
2013-01-14 15:05:00,33.6,20.0,30.33,WNW,294,5.0,12.0,57,0.00,,,-99.99,Weather View 32 v70,2013-01-14 20:05:00,
2013-01-14 15:15:00,32.6,19.0,30.33,WNW,292,4.0,12.0,57,0.00,,,-99.99,Weather View 32 v70,2013-01-14 20:15:00,
2013-01-14 15:20:00,32.5,19.4,30.32,NW,311,6.0,12.0,58,0.00,,,-99.99,Weather View 32 v70,2013-01-14 20:20:00,
2013-01-14 15:25:00,32.4,19.3,30.33,NW,311,5.0,12.0,58,0.00,,,-99.99,Weather View 32 v70,2013-01-14 20:25:00,
2013-01-14 15:30:00,32.6,19.4,30.33,WNW,290,4.0,12.0,58,0.00,,,-99.99,Weather View 32 v70,2013-01-14 20:30:00,
2013-01-14 15:40:00,32.5,20.1,30.34,NW,306,5.0,11.0,60,0.00,,,-99.99,Weather View 32 v70,2013-01-14 20:40:00,
2013-01-14 15:45:00,32.6,20.2,30.34,WNW,303,2.0,11.0,60,0.00,,,-99.99,Weather View 32 v70,2013-01-14 20:45:00,
2013-01-14 15:50:00,32.0,19.7,30.35,NW,305,3.0,11.0,60,0.00,,,-99.99,Weather View 32 v70,2013-01-14 20:50:00,
2013-01-14 16:00:00,31.7,19.4,30.36,NW,318,6.0,11.0,60,0.00,,,-99.99,Weather View 32 v70,2013-01-14 21:00:00,
2013-01-14 16:05:00,31.3,19.0,30.36,WNW,300,6.0,11.0,60,0.00,,,-99.99,Weather View 32 v70,2013-01-14 21:05:00,
2013-01-14 16:10:00,31.3,19.0,30.36,NW,326,6.0,13.0,60,0.00,,,-99.99,Weather View 32 v70,2013-01-14 21:10:00,
2013-01-14 16:15:00,30.9,19.0,30.36,NW,319,4.0,13.0,61,0.00,,,-99.99,Weather View 32 v70,2013-01-14 21:15:00,
2013-01-14 16:25:00,30.8,18.9,30.36,NW,309,3.0,13.0,61,0.00,,,-99.99,Weather View 32 v70,2013-01-14 21:25:00,
2013-01-14 16:30:00,30.6,18.4,30.37,NW,312,3.0,13.0,60,0.00,,,-99.99,Weather View 32 v70,2013-01-14 21:30:00,
2013-01-14 16:35:00,30.6,18.4,30.36,NW,304,4.0,13.0,60,0.00,,,-99.99,Weather View 32 v70,2013-01-14 21:35:00,
2013-01-14 16:40:00,30.6,18.7,30.36,NW,304,0.0,13.0,61,0.00,,,-99.99,Weather View 32 v70,2013-01-14 21:40:00,
2013-01-14 16:50:00,31.1,19.2,30.36,NW,304,1.0,13.0,61,0.00,,,-99.99,Weather View 32 v70,2013-01-14 21:50:00,
2013-01-14 16:55:00,31.1,18.8,30.36,NW,304,1.0,13.0,60,0.00,,,-99.99,Weather View 32 v70,2013-01-14 21:55:00,
2013-01-14 17:00:00,30.9,18.6,30.37,NW,304,1.0,13.0,60,0.00,,,-99.99,Weather View 32 v70,2013-01-14 22:00:00,
2013-01-14 17:10:00,31.0,18.3,30.39,WNW,298,5.0,13.0,59,0.00,,,-99.99,Weather View 32 v70,2013-01-14 22:10:00,
2013-01-14 17:15:00,30.6,17.6,30.39,NW,306,1.0,12.0,58,0.00,,,-99.99,Weather View 32 v70,2013-01-14 22:15:00,
2013-01-14 17:20:00,30.7,18.1,30.39,West,272,3.0,12.0,59,0.00,,,-99.99,Weather View 32 v70,2013-01-14 22:20:00,
2013-01-14 17:30:00,30.5,17.1,30.40,West,272,3.0,10.0,57,0.00,,,-99.99,Weather View 32 v70,2013-01-14 22:30:00,
2013-01-14 17:35:00,30.4,17.0,30.40,West,263,2.0,10.0,57,0.00,,,-99.99,Weather View 32 v70,2013-01-14 22:35:00,
2013-01-14 17:40:00,30.4,17.0,30.40,WNW,297,1.0,10.0,57,0.00,,,-99.99,Weather View 32 v70,2013-01-14 22:40:00,
2013-01-14 17:50:00,30.7,17.7,30.39,WNW,297,2.0,10.0,58,0.00,,,-99.99,Weather View 32 v70,2013-01-14 22:50:00,
2013-01-14 17:55:00,30.9,17.4,30.38,WNW,296,2.0,10.0,57,0.00,,,-99.99,Weather View 32 v70,2013-01-14 22:55:00,
2013-01-14 18:00:00,30.9,17.9,30.37,WNW,297,2.0,10.0,58,0.00,,,-99.99,Weather View 32 v70,2013-01-14 23:00:00,
2013-01-14 18:05:00,30.6,16.8,30.38,WNW,297,2.0,10.0,56,0.00,,,-99.99,Weather View 32 v70,2013-01-14 23:05:00,
2013-01-14 18:10:00,30.4,17.0,30.39,West,274,6.0,10.0,57,0.00,,,-99.99,Weather View 32 v70,2013-01-14 23:10:00,
2013-01-14 18:20:00,30.4,16.6,30.40,WNW,302,2.0,10.0,56,0.00,,,-99.99,Weather View 32 v70,2013-01-14 23:20:00,
2013-01-14 18:25:00,30.4,17.0,30.40,WNW,302,3.0,10.0,57,0.00,,,-99.99,Weather View 32 v70,2013-01-14 23:25:00,
2013-01-14 18:30:00,30.4,17.0,30.40,WNW,290,2.0,10.0,57,0.00,,,-99.99,Weather View 32 v70,2013-01-14 23:30:00,
2013-01-14 18:40:00,30.2,16.8,30.40,West,268,4.0,10.0,57,0.00,,,-99.99,Weather View 32 v70,2013-01-14 23:40:00,
2013-01-14 18:45:00,30.3,16.9,30.42,WNW,301,8.0,10.0,57,0.00,,,-99.99,Weather View 32 v70,2013-01-14 23:45:00,
2013-01-14 18:50:00,30.4,17.0,30.41,WNW,284,4.0,10.0,57,0.00,,,-99.99,Weather View 32 v70,2013-01-14 23:50:00,
2013-01-14 18:55:00,30.3,17.3,30.42,West,280,6.0,10.0,58,0.00,,,-99.99,Weather View 32 v70,2013-01-14 23:55:00,
2013-01-14 19:05:00,29.9,16.9,30.41,West,269,1.0,10.0,58,0.00,,,-99.99,Weather View 32 v70,2013-01-15 00:05:00,
2013-01-14 19:15:00,29.9,17.3,30.40,WNW,296,4.0,10.0,59,0.00,,,-99.99,Weather View 32 v70,2013-01-15 00:15:00,
2013-01-14 19:20:00,29.8,17.6,30.40,WNW,296,4.0,10.0,60,0.00,,,-99.99,Weather View 32 v70,2013-01-15 00:20:00,
2013-01-14 19:30:00,29.6,17.4,30.37,WNW,296,1.0,10.0,60,0.00,,,-99.99,Weather View 32 v70,2013-01-15 00:30:00,
2013-01-14 19:35:00,29.5,16.9,30.37,NW,310,3.0,10.0,59,0.00,,,-99.99,Weather View 32 v70,2013-01-15 00:35:00,
2013-01-14 19:40:00,29.3,17.1,30.36,NW,310,2.0,10.0,60,0.00,,,-99.99,Weather View 32 v70,2013-01-15 00:40:00,
2013-01-14 19:45:00,29.3,16.7,30.36,NW,310,2.0,10.0,59,0.00,,,-99.99,Weather View 32 v70,2013-01-15 00:45:00,
2013-01-14 19:50:00,29.3,17.1,30.36,NW,310,1.0,10.0,60,0.00,,,-99.99,Weather View 32 v70,2013-01-15 00:50:00,
2013-01-14 19:55:00,29.3,16.7,30.36,NW,309,0.0,10.0,59,0.00,,,-99.99,Weather View 32 v70,2013-01-15 00:55:00,
2013-01-14 20:05:00,29.6,17.0,30.37,WNW,298,2.0,9.0,59,0.00,,,-99.99,Weather View 32 v70,2013-01-15 01:05:00,
2013-01-14 20:10:00,29.8,17.2,30.39,WNW,298,2.0,9.0,59,0.00,,,-99.99,Weather View 32 v70,2013-01-15 01:10:00,
2013-01-14 20:15:00,30.0,17.4,30.38,WSW,254,4.0,9.0,59,0.00,,,-99.99,Weather View 32 v70,2013-01-15 01:15:00,
2013-01-14 20:25:00,30.2,17.6,30.38,WSW,252,1.0,9.0,59,0.00,,,-99.99,Weather View 32 v70,2013-01-15 01:25:00,
2013-01-14 20:30:00,30.2,18.0,30.39,West,264,2.0,9.0,60,0.00,,,-99.99,Weather View 32 v70,2013-01-15 01:30:00,
2013-01-14 20:35:00,30.2,17.6,30.40,WNW,293,6.0,9.0,59,0.00,,,-99.99,Weather View 32 v70,2013-01-15 01:35:00,
2013-01-14 20:45:00,29.9,17.3,30.39,NW,311,1.0,9.0,59,0.00,,,-99.99,Weather View 32 v70,2013-01-15 01:45:00,
2013-01-14 20:50:00,29.7,17.5,30.39,NW,311,1.0,9.0,60,0.00,,,-99.99,Weather View 32 v70,2013-01-15 01:50:00,
2013-01-14 20:55:00,29.8,17.6,30.39,West,262,3.0,7.0,60,0.00,,,-99.99,Weather View 32 v70,2013-01-15 01:55:00,
2013-01-14 21:00:00,29.6,17.4,30.39,NW,306,3.0,7.0,60,0.00,,,-99.99,Weather View 32 v70,2013-01-15 02:00:00,
2013-01-14 21:10:00,29.9,18.1,30.40,NW,306,1.0,7.0,61,0.00,,,-99.99,Weather View 32 v70,2013-01-15 02:10:00,
2013-01-14 21:15:00,29.9,17.7,30.40,NW,306,2.0,7.0,60,0.00,,,-99.99,Weather View 32 v70,2013-01-15 02:15:00,
2013-01-14 21:20:00,29.9,18.1,30.40,NW,306,1.0,7.0,61,0.00,,,-99.99,Weather View 32 v70,2013-01-15 02:20:00,
2013-01-14 21:30:00,29.7,17.5,30.40,NW,306,1.0,7.0,60,0.00,,,-99.99,Weather View 32 v70,2013-01-15 02:30:00,
2013-01-14 21:35:00,29.8,17.6,30.40,NW,306,1.0,7.0,60,0.00,,,-99.99,Weather View 32 v70,2013-01-15 02:35:00,
2013-01-14 21:40:00,29.8,17.6,30.39,NW,306,1.0,6.0,60,0.00,,,-99.99,Weather View 32 v70,2013-01-15 02:40:00,
2013-01-14 21:45:00,29.7,17.5,30.39,NW,306,2.0,6.0,60,0.00,,,-99.99,Weather View 32 v70,2013-01-15 02:45:00,
2013-01-14 21:55:00,29.5,16.9,30.38,NW,306,1.0,6.0,59,0.00,,,-99.99,Weather View 32 v70,2013-01-15 02:55:00,
2013-01-14 22:00:00,29.4,17.2,30.38,NW,306,3.0,5.0,60,0.00,,,-99.99,Weather View 32 v70,2013-01-15 03:00:00,
2013-01-14 22:05:00,29.7,17.5,30.39,WNW,286,3.0,5.0,60,0.00,,,-99.99,Weather View 32 v70,2013-01-15 03:05:00,
2013-01-14 22:10:00,29.6,17.4,30.38,WNW,299,2.0,6.0,60,0.00,,,-99.99,Weather View 32 v70,2013-01-15 03:10:00,
2013-01-14 22:20:00,29.3,17.1,30.38,WNW,299,1.0,6.0,60,0.00,,,-99.99,Weather View 32 v70,2013-01-15 03:20:00,
2013-01-14 22:30:00,29.2,17.0,30.38,WNW,299,2.0,6.0,60,0.00,,,-99.99,Weather View 32 v70,2013-01-15 03:30:00,
2013-01-14 22:35:00,29.2,17.4,30.37,WNW,299,4.0,6.0,61,0.00,,,-99.99,Weather View 32 v70,2013-01-15 03:35:00,
2013-01-14 22:40:00,29.2,17.4,30.37,WNW,299,1.0,6.0,61,0.00,,,-99.99,Weather View 32 v70,2013-01-15 03:40:00,
2013-01-14 22:50:00,29.1,17.3,30.37,WNW,299,2.0,6.0,61,0.00,,,-99.99,Weather View 32 v70,2013-01-15 03:50:00,
2013-01-14 22:55:00,29.1,17.3,30.37,WNW,299,0.0,6.0,61,0.00,,,-99.99,Weather View 32 v70,2013-01-15 03:55:00,
2013-01-14 23:00:00,29.1,17.3,30.37,WNW,299,2.0,6.0,61,0.00,,,-99.99,Weather View 32 v70,2013-01-15 04:00:00,
2013-01-14 23:05:00,29.2,17.4,30.36,WNW,299,0.0,6.0,61,0.00,,,-99.99,Weather View 32 v70,2013-01-15 04:05:00,
2013-01-14 23:15:00,29.1,17.3,30.36,WNW,299,3.0,6.0,61,0.00,,,-99.99,Weather View 32 v70,2013-01-15 04:15:00,
2013-01-14 23:20:00,29.1,17.7,30.36,WNW,299,2.0,6.0,62,0.00,,,-99.99,Weather View 32 v70,2013-01-15 04:20:00,
2013-01-14 23:25:00,29.0,17.6,30.36,WNW,299,3.0,6.0,62,0.00,,,-99.99,Weather View 32 v70,2013-01-15 04:25:00,
2013-01-14 23:30:00,28.9,17.1,30.36,WNW,299,2.0,6.0,61,0.00,,,-99.99,Weather View 32 v70,2013-01-15 04:30:00,
2013-01-14 23:40:00,28.7,17.3,30.36,WNW,299,1.0,6.0,62,0.00,,,-99.99,Weather View 32 v70,2013-01-15 04:40:00,
2013-01-14 23:45:00,28.6,16.9,30.35,WNW,299,2.0,6.0,61,0.00,,,-99.99,Weather View 32 v70,2013-01-15 04:45:00,
2013-01-14 23:50:00,28.7,17.3,30.36,WNW,299,0.0,5.0,62,0.00,,,-99.99,Weather View 32 v70,2013-01-15 04:50:00,
2013-01-14 23:55:00,28.7,17.3,30.36,WNW,299,4.0,7.0,62,0.00,,,-99.99,Weather View 32 v70,2013-01-15 04:55:00,